Location: Newark
(36.1358°N, 115.1208°W)
Time: 21:28:19
(UTC+00:00)

Hubble Space Telescope - Visible Passes

Search period start: 29 January 2020 00:00
Search period end: 08 February 2020 00:00
Orbit: 536 x 540 km, 28.5° (Epoch: 28 January)

Date Brightness Start Highest point End Pass type
(mag) Time Alt. Az. Time Alt. Az. Time Alt. Az.
29 Jan 3.3 13:43:08 10° SSW 13:45:39 16° SSE 13:48:11 10° SE visible
30 Jan 3.1 13:32:04 10° SSW 13:34:56 18° SSE 13:37:47 10° ESE visible
31 Jan 2.9 13:21:08 10° SW 13:24:13 21° SSE 13:27:19 10° ESE visible
01 Feb 2.7 13:11:20 15° SSW 13:13:31 23° S 13:16:47 10° ESE visible
02 Feb 2.4 13:01:27 21° SSW 13:02:49 25° S 13:06:12 10° ESE visible
03 Feb 2.2 12:51:31 25° S 12:52:07 26° S 12:55:36 10° ESE visible
04 Feb 2.2 12:41:32 27° S 12:41:32 27° S 12:44:57 10° ESE visible
05 Feb 2.4 12:31:32 26° SSE 12:31:32 26° SSE 12:34:17 10° ESE visible
05 Feb 2.7 14:08:18 10° WSW 14:11:26 21° SSW 14:14:35 10° SE visible
06 Feb 2.8 12:21:31 22° SSE 12:21:31 22° SSE 12:23:35 10° ESE visible
06 Feb 2.8 13:57:49 10° WSW 14:00:44 19° SSW 14:03:38 10° SSE visible
07 Feb 3.2 12:11:30 17° SE 12:11:30 17° SE 12:12:51 10° SE visible
07 Feb 2.9 13:47:25 10° SW 13:50:00 16° SSW 13:52:37 10° SSE visible
